Regional Weather Roundup
Issued by NWS Kansas City/Pleasant Hill, MO

Home | Current Version | Previous Version | Text Only | Print | Product List | Glossary On
Versions: 1 2 3 4 5 6 7 8 9 10 11 12 13 14 15 16 17 18 19 20 21 22 23 24 25 26 27 28 29 30 31 32 33 34 35 36 37 38 39 40 41 42 43 44 45 46 47 48 49 50
448
ASUS43 KEAX 241010
RWREAX

WEATHER ROUNDUP FOR EASTERN KANSAS AND NORTHWEST MISSOURI
NATIONAL WEATHER SERVICE KANSAS CITY/PLEASANT HILL MO
400 AM CST TUE JAN 24 2017

KSZ040-057-103>105-MOZ028-029-037-043-241100-
...KANSAS CITY METROPOLITAN AREA...

CITY           SKY/WX    TMP DP  RH WIND       PRES   REMARKS
K.C. INTL      PTCLDY    31  27  85 E14       29.77F WCI  21
K.C. DOWNTOWN  CLEAR     32  29  88 E13       29.78F WCI  22
LEES SUMMIT    CLEAR     30  28  92 E13       29.78F WCI  20
OLATHE - IXD   CLEAR     32  30  92 E9        29.75F WCI  24
OLATHE - OJC   CLEAR     31  30  96 E9        29.76F WCI  23
LAWRENCE       CLEAR     31  30  96 E10       29.75F FOG     WCI  22

$$

MOZ001>008-011>017-020>025-030>033-038>040-044>046-053-054-241100-
...NORTHERN AND CENTRAL MISSOURI...

CITY           SKY/WX    TMP DP  RH WIND       PRES   REMARKS
ST. JOSEPH     CLEAR     30  29  96 E10       29.80F WCI  21
MOSBY            N/A     32  30  93 E8        29.82F WCI  25
WARRENSBURG    PTCLDY    30  28  93 E7        29.82F WCI  23
WHITEMAN AFB   CLEAR     30  30 100 E9        29.81F WCI  22
CLINTON        PTCLDY    32  32 100 E7        29.82F FOG     WCI  26
SEDALIA        CLEAR     30  28  92 E6        29.84F FOG     WCI  24
WARSAW         NOT AVBL
CHILLICOTHE      N/A     33  30  88 E6        29.87S WCI  28
KIRKSVILLE     CLOUDY    31  29  92 E5        29.88F WCI  26

$$

MOZ041-047>049-056>058-063>065-088>090-097-241100-
...EASTERN AND SOUTHERN MISSOURI...

CITY           SKY/WX    TMP DP  RH WIND       PRES   REMARKS
ST. LOUIS INTL CLOUDY    39  31  72 CALM      29.90R
SPIRIT OF STL  CLOUDY    38  34  85 CALM      29.89R
COLUMBIA       CLOUDY    33  31  92 SE6       29.87F WCI  28
JEFFERSON CITY CLEAR     28  27  96 CALM      29.88F FOG
ROLLA          PTCLDY    29  28  96 E8        29.84F FOG     WCI  21
OSAGE BEACH    CLEAR     29  28  96 SE5       29.86F WCI  24
SPRINGFIELD    CLEAR     37  32  82 SE12      29.77F WCI  29
BRANSON        CLEAR     36  32  87 SE12      29.80F WCI  27
JOPLIN         CLEAR     40  34  79 SE9       29.72F WCI  34
WEST PLAINS    CLOUDY    28  26  92 CALM      29.86S

$$

IAZ060-094-KSZ022-034>040-054-083-096-NEZ052-066-093-241100-
...KANSAS...SOUTHEAST NEBRASKA AND IOWA...

CITY           SKY/WX    TMP DP  RH WIND       PRES   REMARKS
TOPEKA         CLEAR     34  30  85 E12       29.72F WCI  25
MANHATTAN      PTCLDY    35  31  85 E13       29.64F WCI  26
EMPORIA        PTCLDY    37  32  82 E16       29.62F WCI  28
CHANUTE        PTCLDY    39  32  76 E13       29.66F WCI  31
WICHITA        CLOUDY    40  31  70 SE12      29.55F WCI  33
OMAHA          CLOUDY    31  26  82 E8        29.79F WCI  23
LINCOLN        CLOUDY    31  29  92 E10       29.76F FOG     WCI  22
FALLS CITY     CLOUDY    30  28  92 E14       29.75F WCI  19
LAMONI         CLOUDY    30  28  92 E7        29.83F WCI  23
DES MOINES     CLOUDY    32  28  85 S5        29.87S WCI  27

$$





USA.gov is the U.S. government's official web portal to all federal, state and local government web resources and services.